Location: Unspecified
(0.0000°N, 0.0000°E)
Time: 05:03:42
(UTC+01:00)

ISS - All Passes

Search period start: 24 November 2017 00:00
Search period end: 04 December 2017 00:00
Orbit: 402 x 407 km, 51.6° (Epoch: 24 November)

Date Brightness Start Highest point End Pass type
(mag) Time Alt. Az. Time Alt. Az. Time Alt. Az.
24 Nov - 05:11:59 10° NNE 05:13:19 12° NE 05:14:40 10° ENE visible
24 Nov - 06:47:10 10° WNW 06:49:35 19° SW 06:52:02 10° S daylight
24 Nov - 18:20:34 10° WSW 18:23:31 31° NW 18:26:28 10° N daylight
25 Nov - 05:54:09 10° NW 05:57:20 55° SW 06:00:32 10° SSE visible
25 Nov - 17:28:00 10° SSW 17:31:16 82° SE 17:34:32 10° NE daylight
26 Nov - 05:01:58 10° NNW 05:05:05 45° NE 05:08:12 10° SE visible
26 Nov - 16:36:09 10° S 16:39:00 27° SE 16:41:49 10° ENE daylight
27 Nov - 04:10:38 10° NNE 04:12:48 17° NE 04:14:58 10° E visible
27 Nov - 05:47:14 10° W 05:49:04 14° SW 05:50:53 10° SSW visible
27 Nov - 15:45:53 10° SE 15:46:41 11° SE 15:47:29 10° ESE daylight
27 Nov - 17:20:19 10° WSW 17:22:57 22° NW 17:25:36 10° N daylight
28 Nov - 04:53:44 10° WNW 04:56:46 37° SW 04:59:48 10° SSE visible
28 Nov - 16:27:25 10° SW 16:30:40 66° NW 16:33:54 10° NNE daylight
29 Nov - 04:01:14 10° NNW 04:04:27 68° NE 04:07:42 10° SE visible
29 Nov - 15:35:17 10° SSW 15:38:22 38° SE 15:41:26 10° NE daylight
30 Nov - 03:09:31 10° N 03:12:10 23° NE 03:14:47 10° ESE night (unlit)
30 Nov - 04:47:59 10° WSW 04:48:26 10° SW 04:48:52 10° SW visible
30 Nov - 14:44:06 10° SSE 14:46:02 15° SE 14:47:57 10° E daylight
30 Nov - 16:20:08 10° W 16:22:18 16° NW 16:24:27 10° NNW daylight
01 Dec - 03:53:18 10° WNW 03:56:04 26° SW 03:58:51 10° S night (unlit)
01 Dec - 15:26:49 10° SW 15:29:58 44° NW 15:33:06 10° NNE daylight
02 Dec - 03:00:30 10° NW 03:03:44 80° SW 03:06:59 10° SSE night (unlit)
02 Dec - 14:34:24 10° SSW 14:37:37 56° SE 14:40:50 10° NE daylight
03 Dec - 02:08:28 10° N 02:11:23 32° NE 02:14:20 10° ESE night (unlit)
03 Dec - 13:42:46 10° S 13:45:16 20° SE 13:47:44 10° ENE daylight
03 Dec - 15:20:10 10° WNW 15:21:31 12° NW 15:22:52 10° NNW daylight
